Back to catalog

ONEWEB-0050

AliveCommunicationsPO
NORAD 45453·PAYLOAD·🇬🇧 United Kingdom

Launched Mar 21, 2020 from Baikonur Cosmodrome

Loading…

Next Passes (next 24 hours)

TLE

FreshSource: CelesTrak SupGP

Epoch: Sep 14, 2026, 15:33 UTC

1 45453C 20020AF  26257.64841850  .00002168  00000+0  22208-3 0  2573
2 45453  88.9332 221.0588 0004969  45.1107  23.0051 14.90613694    13

Track ONEWEB-0050 in real time with AllMySat

Download on the App Store